Hourly Data Report for June 12, 2017

TORONTO CITY
ONTARIO

43°40'00.000" N
79°24'00.000" W
112.50 m
6158355
71508
XTO

Download Data

Hourly Data (June 2017)
Hourly Data Report for June 12, 2017
TIME
LST
Temp Definition
°C
Dew Point Definition
°C
Rel Hum Definition
%
Precip. Amount Definition
mm

Wind Dir Definition
10's deg

Wind Spd Definition
km/h
Visibility Definition
km
Stn Press Definition
kPa
Hmdx Definition


Wind Chill Definition


Weather Definition


00:00 22.8 12.8 53 0.0 LegendMM LegendMM   100.01 25   LegendNANA
01:00 22.0 12.9 56 0.0 LegendMM LegendMM   100.09 25   LegendNANA
02:00 21.2 13.6 62 0.0 LegendMM LegendMM   100.11     LegendNANA
03:00 20.4 14.2 68 0.0 LegendMM LegendMM   100.06     LegendNANA
04:00 20.7 13.6 64 0.0 LegendMM LegendMM   100.07     LegendNANA
05:00 20.1 14.2 69 0.0 LegendMM LegendMM   100.13     LegendNANA
06:00 21.1 15.0 68 0.0 LegendMM LegendMM   100.19 25   LegendNANA
07:00 22.5 15.2 63 0.0 LegendMM LegendMM   100.09 27   LegendNANA
08:00 23.5 15.9 62 0.0 LegendMM LegendMM   100.12 28   LegendNANA
09:00 26.7 16.7 54 0.0 LegendMM LegendMM   100.11 32   LegendNANA
10:00 27.2 16.3 51 0.0 LegendMM LegendMM   100.07 32   LegendNANA
11:00 28.3 16.9 50 0.0 LegendMM LegendMM   100.01 34   LegendNANA
12:00 29.3 15.7 44 0.0 LegendMM LegendMM   100.00 34   LegendNANA
13:00 28.0 14.3 43 0.0 LegendMM LegendMM   100.00 32   LegendNANA
14:00 27.7 15.6 47 0.0 LegendMM LegendMM   99.93 32   LegendNANA
15:00 28.9 16.2 46 0.0 LegendMM LegendMM   99.91 34   LegendNANA
16:00 29.8 16.4 45 0.0 LegendMM LegendMM   99.85 35   LegendNANA
17:00 28.5 16.3 48 0.0 LegendMM LegendMM   99.83 33   LegendNANA
18:00 27.9 15.8 48 0.0 LegendMM LegendMM   99.83 32   LegendNANA
19:00 27.7 14.9 45 0.0 LegendMM LegendMM   99.83 32   LegendNANA
20:00 26.8 15.1 49 0.0 LegendMM LegendMM   99.83 31   LegendNANA
21:00 26.1 15.6 53 0.0 LegendMM LegendMM   99.86 30   LegendNANA
22:00 24.1 14.3 54 0.0 LegendMM LegendMM   99.88 28   LegendNANA
23:00 24.4 14.4 54 0.0 LegendMM LegendMM   99.92 28   LegendNANA

Notes on Data Quality.

Legend

  • E = Estimated
  • M = Missing
  • NA = Not Available*
  • [empty] = Indicates an unobserved value
Date modified: